When you browse on this site, cookies collect data to enhance your experience and personalize the content and advertising you see.
Visit our Privacy Policy to learn more. By continuing to use the site, you agree to this use of cookies and data.
  • In Hungary
  • List of Countries
  • For 7 days
  • Water Temperature
  • Satellite Maps
  • Weather Map
  • News
  • Weather Widgets
  • user-avatar
    Login

    Hourly Weather Djelfa

    Today, 24 April, Wednesday

    Time Temperature Precipitation Wind Pressure Humidity
    00:00 +13°C° 0 mm 6 mps 658 mmHg 59%
    01:00 +12°C° 0 mm 5 mps 658 mmHg 67%
    02:00 +10°C° 0 mm 5 mps 658 mmHg 74%
    03:00 +9°C° 0 mm 5 mps 658 mmHg 82%
    04:00 +9°C° 0 mm 5 mps 659 mmHg 82%
    05:00 +8°C° 0 mm 5 mps 659 mmHg 83%
    06:00 +8°C° 0 mm 5 mps 659 mmHg 81%
    07:00 +9°C° 0 mm 5 mps 660 mmHg 73%
    08:00 +12°C° 0 mm 5 mps 660 mmHg 64%
    09:00 +13°C° 0 mm 5 mps 661 mmHg 56%
    10:00 +15°C° 0 mm 4 mps 661 mmHg 49%
    11:00 +18°C° 0 mm 3 mps 661 mmHg 42%
    12:00 +20°C° 0 mm 2 mps 662 mmHg 33%
    13:00 +21°C° 0 mm 2 mps 662 mmHg 29%
    14:00 +23°C° 0 mm 2 mps 662 mmHg 26%
    15:00 +24°C° 0 mm 2 mps 662 mmHg 23%
    16:00 +23°C° 0 mm 2 mps 662 mmHg 24%
    17:00 +22°C° 0 mm 3 mps 662 mmHg 26%
    18:00 +21°C° 0 mm 3 mps 662 mmHg 27%
    19:00 +20°C° 0 mm 2 mps 662 mmHg 31%
    20:00 +19°C° 0 mm 2 mps 662 mmHg 35%
    21:00 +18°C° 0 mm 2 mps 663 mmHg 38%
    22:00 +17°C° 0 mm 2 mps 663 mmHg 40%
    23:00 +17°C° 0 mm 2 mps 663 mmHg 42%

    Tomorrow, 25 April, Thursday

    Time Temperature Precipitation Wind Pressure Humidity
    00:00 +16°C° 0 mm 2 mps 663 mmHg 44%
    01:00 +15°C° 0 mm 2 mps 663 mmHg 47%
    02:00 +15°C° 0 mm 1 mps 663 mmHg 50%
    03:00 +14°C° 0 mm 1 mps 662 mmHg 54%
    04:00 +14°C° 0 mm 1 mps 663 mmHg 56%
    05:00 +14°C° 0 mm 2 mps 663 mmHg 58%
    06:00 +14°C° 0 mm 2 mps 663 mmHg 61%
    07:00 +16°C° 0 mm 2 mps 664 mmHg 53%
    08:00 +18°C° 0 mm 2 mps 664 mmHg 45%
    09:00 +19°C° 0 mm 2 mps 665 mmHg 38%
    10:00 +21°C° 0 mm 2 mps 666 mmHg 31%
    11:00 +24°C° 0 mm 3 mps 666 mmHg 25%
    12:00 +26°C° 0 mm 4 mps 666 mmHg 19%
    13:00 +26°C° 0 mm 4 mps 666 mmHg 18%
    14:00 +27°C° 0 mm 4 mps 666 mmHg 17%
    15:00 +27°C° 0 mm 5 mps 665 mmHg 16%
    16:00 +27°C° 0 mm 4 mps 665 mmHg 17%
    17:00 +26°C° 0 mm 3 mps 665 mmHg 18%
    18:00 +25°C° 0 mm 2 mps 665 mmHg 20%
    19:00 +24°C° 0 mm 2 mps 665 mmHg 23%
    20:00 +23°C° 0 mm 2 mps 666 mmHg 27%
    21:00 +21°C° 0 mm 1 mps 666 mmHg 31%
    22:00 +19°C° 0 mm 3 mps 666 mmHg 38%
    23:00 +18°C° 0 mm 4 mps 666 mmHg 46%

    Day after tomorrow, 26 April, Friday

    Time Temperature Precipitation Wind Pressure Humidity
    00:00 +16°C° 0 mm 6 mps 666 mmHg 54%
    01:00 +15°C° 0 mm 6 mps 666 mmHg 59%
    02:00 +14°C° 0 mm 5 mps 666 mmHg 64%
    03:00 +13°C° 0 mm 5 mps 666 mmHg 70%
    04:00 +13°C° 0 mm 5 mps 666 mmHg 69%
    05:00 +11°C° 0 mm 6 mps 666 mmHg 68%
    06:00 +11°C° 0 mm 6 mps 666 mmHg 67%
    07:00 +13°C° 0 mm 6 mps 667 mmHg 62%
    08:00 +14°C° 0 mm 6 mps 667 mmHg 56%
    09:00 +16°C° 0 mm 6 mps 668 mmHg 51%
    10:00 +17°C° 0 mm 6 mps 668 mmHg 46%
    11:00 +20°C° 0 mm 6 mps 668 mmHg 42%
    12:00 +21°C° 0 mm 6 mps 668 mmHg 38%
    13:00 +21°C° 0 mm 6 mps 668 mmHg 36%
    14:00 +22°C° 0 mm 6 mps 668 mmHg 35%
    15:00 +22°C° 0 mm 6 mps 668 mmHg 34%
    16:00 +21°C° 0 mm 6 mps 667 mmHg 38%
    17:00 +20°C° 0 mm 7 mps 667 mmHg 42%
    18:00 +18°C° 0 mm 7 mps 667 mmHg 46%
    19:00 +17°C° 0 mm 7 mps 667 mmHg 50%
    20:00 +15°C° 0 mm 6 mps 668 mmHg 54%
    21:00 +14°C° 0 mm 6 mps 668 mmHg 58%
    22:00 +13°C° 0 mm 6 mps 668 mmHg 59%
    23:00 +13°C° 0 mm 5 mps 668 mmHg 60%

    27 April, Saturday

    Time Temperature Precipitation Wind Pressure Humidity
    00:00 +12°C° 0 mm 5 mps 668 mmHg 61%
    01:00 +11°C° 0 mm 4 mps 668 mmHg 62%
    02:00 +11°C° 0 mm 4 mps 667 mmHg 63%
    03:00 +10°C° 0 mm 3 mps 667 mmHg 64%
    04:00 +10°C° 0 mm 3 mps 667 mmHg 63%
    05:00 +10°C° 0 mm 3 mps 667 mmHg 63%
    06:00 +10°C° 0 mm 2 mps 667 mmHg 63%
    07:00 +12°C° 0 mm 2 mps 668 mmHg 53%
    08:00 +14°C° 0 mm 2 mps 668 mmHg 43%
    09:00 +15°C° 0 mm 2 mps 669 mmHg 33%
    10:00 +17°C° 0 mm 2 mps 669 mmHg 28%
    11:00 +18°C° 0 mm 2 mps 669 mmHg 24%
    12:00 +21°C° 0 mm 1 mps 669 mmHg 19%
    13:00 +20°C° 0 mm 2 mps 669 mmHg 17%
    14:00 +21°C° 0 mm 2 mps 669 mmHg 16%
    15:00 +22°C° 0 mm 3 mps 668 mmHg 15%
    16:00 +21°C° 0 mm 3 mps 668 mmHg 16%
    17:00 +21°C° 0 mm 4 mps 668 mmHg 17%
    18:00 +20°C° 0 mm 5 mps 668 mmHg 18%
    19:00 +19°C° 0 mm 4 mps 668 mmHg 20%
    20:00 +18°C° 0 mm 3 mps 668 mmHg 21%
    21:00 +17°C° 0 mm 2 mps 668 mmHg 23%
    22:00 +16°C° 0 mm 2 mps 668 mmHg 25%
    23:00 +16°C° 0 mm 2 mps 668 mmHg 28%

    28 April, Sunday

    Time Temperature Precipitation Wind Pressure Humidity
    00:00 +15°C° 0 mm 2 mps 668 mmHg 31%
    01:00 +15°C° 0 mm 2 mps 667 mmHg 34%
    02:00 +14°C° 0 mm 2 mps 667 mmHg 37%
    03:00 +14°C° 0 mm 2 mps 666 mmHg 41%
    04:00 +14°C° 0 mm 2 mps 667 mmHg 42%
    05:00 +14°C° 0 mm 2 mps 667 mmHg 44%
    06:00 +14°C° 0 mm 2 mps 667 mmHg 46%
    07:00 +16°C° 0 mm 2 mps 668 mmHg 41%
    08:00 +18°C° 0 mm 3 mps 668 mmHg 37%
    09:00 +19°C° 0 mm 4 mps 668 mmHg 33%
    10:00 +21°C° 0 mm 4 mps 668 mmHg 30%
    11:00 +22°C° 0 mm 4 mps 668 mmHg 27%
    12:00 +23°C° 0 mm 4 mps 668 mmHg 24%
    13:00 +23°C° 0 mm 4 mps 667 mmHg 24%
    14:00 +25°C° 0 mm 4 mps 667 mmHg 23%
    15:00 +25°C° 0 mm 4 mps 666 mmHg 23%
    16:00 +25°C° 0 mm 4 mps 666 mmHg 24%
    17:00 +24°C° 0 mm 3 mps 666 mmHg 24%
    18:00 +24°C° 0 mm 3 mps 665 mmHg 25%
    19:00 +21°C° 0 mm 3 mps 666 mmHg 28%
    20:00 +20°C° 0 mm 3 mps 666 mmHg 30%
    21:00 +19°C° 0 mm 2 mps 666 mmHg 32%
    22:00 +19°C° 0.2 mm 3 mps 665 mmHg 36%
    23:00 +18°C° 0.2 mm 4 mps 665 mmHg 39%

    29 April, Monday

    Time Temperature Precipitation Wind Pressure Humidity
    00:00 +17°C° 0.2 mm 4 mps 665 mmHg 42%
    01:00 +17°C° 0.1 mm 4 mps 665 mmHg 43%
    02:00 +17°C° 0.1 mm 4 mps 664 mmHg 44%
    03:00 +15°C° 0.1 mm 4 mps 664 mmHg 45%
    04:00 +16°C° 0 mm 3 mps 664 mmHg 44%
    05:00 +16°C° 0 mm 3 mps 664 mmHg 44%
    06:00 +16°C° 0 mm 2 mps 664 mmHg 44%
    07:00 +18°C° 0 mm 3 mps 664 mmHg 39%
    08:00 +19°C° 0 mm 4 mps 665 mmHg 35%
    09:00 +21°C° 0 mm 5 mps 665 mmHg 31%
    10:00 +22°C° 0 mm 4 mps 665 mmHg 29%
    11:00 +23°C° 0 mm 4 mps 665 mmHg 28%
    12:00 +25°C° 0 mm 4 mps 664 mmHg 27%
    13:00 +26°C° 0 mm 5 mps 664 mmHg 25%
    14:00 +26°C° 0 mm 6 mps 664 mmHg 24%
    15:00 +27°C° 0 mm 6 mps 663 mmHg 22%
    16:00 +26°C° 0 mm 6 mps 663 mmHg 24%
    17:00 +25°C° 0 mm 5 mps 663 mmHg 26%
    18:00 +25°C° 0 mm 5 mps 663 mmHg 28%
    19:00 +22°C° 0.3 mm 3 mps 663 mmHg 33%
    20:00 +21°C° 0.3 mm 2 mps 663 mmHg 37%
    21:00 +21°C° 0.3 mm 1 mps 664 mmHg 41%
    22:00 +20°C° 0.5 mm 1 mps 663 mmHg 45%
    23:00 +20°C° 0.5 mm 1 mps 663 mmHg 49%
    Show more